| time (UTC) | temp C | wind direction | speed KPH | gust KPH | rain 1hr cm | rain 24hr cm | rain mn cm | humidity % | barometer mb |
| 20260507213745 | 10 | 225 | 22.5 | 0.0 | 0.00 | 0.00 | 0.00 | 1013.8 | |
| 20260507212732 | 11 | 225 | 27.4 | 0.0 | 0.00 | 0.00 | 0.00 | 1013.9 | |
| 20260507211718 | 11 | 225 | 29.0 | 0.0 | 0.00 | 0.00 | 0.00 | 1013.8 | |
| 20260507210704 | 11 | 225 | 33.8 | 0.0 | 0.00 | 0.00 | 0.00 | 1013.7 | |
| 20260507205651 | 11 | 225 | 33.8 | 0.0 | 0.00 | 0.00 | 0.00 | 1013.6 | |
| 20260507204637 | 11 | 180 | 27.4 | 0.0 | 0.00 | 0.00 | 0.00 | 1013.5 | |
| 20260507203623 | 11 | 180 | 27.4 | 0.0 | 0.00 | 0.00 | 0.00 | 1013.5 | |
| 20260507202610 | 11 | 180 | 32.2 | 0.0 | 0.00 | 0.00 | 0.00 | 1013.3 | |
| 20260507201556 | 11 | 180 | 38.6 | 0.0 | 0.00 | 0.00 | 0.00 | 1013.0 | |
| 20260507200543 | 11 | 180 | 33.8 | 0.0 | 0.00 | 0.00 | 0.00 | 1013.2 | |
| 20260507195529 | 11 | 225 | 37.0 | 0.0 | 0.00 | 0.00 | 0.00 | 1013.3 | |
| 20260507194515 | 11 | 225 | 30.6 | 0.0 | 0.00 | 0.00 | 0.00 | 1013.4 | |
| 20260507193502 | 11 | 225 | 24.1 | 0.0 | 0.00 | 0.00 | 0.00 | 1013.5 | |
| 20260507192448 | 11 | 180 | 35.4 | 0.0 | 0.00 | 0.00 | 0.00 | 1013.5 | |
| 20260507191435 | 11 | 180 | 43.5 | 0.0 | 0.00 | 0.00 | 0.00 | 1013.2 | |
| 20260507190421 | 11 | 180 | 45.1 | 0.0 | 0.00 | 0.00 | 0.00 | 1013.2 | |
| 20260507185407 | 11 | 180 | 41.8 | 0.0 | 0.00 | 0.00 | 0.00 | 1013.3 | |
| 20260507184354 | 11 | 180 | 25.7 | 0.0 | 0.00 | 0.00 | 0.00 | 1013.7 | |
| 20260507183340 | 12 | 180 | 27.4 | 0.0 | 0.00 | 0.00 | 0.00 | 1013.6 | |
| 20260507182326 | 12 | 180 | 19.3 | 0.0 | 0.00 | 0.00 | 0.00 | 1013.4 | |
| 20260507181313 | 12 | 135 | 19.3 | 0.0 | 0.00 | 0.00 | 0.00 | 1013.5 | |
| 20260507180259 | 13 | 180 | 19.3 | 0.0 | 0.00 | 0.00 | 0.00 | 1013.4 | |
| 20260507175245 | 12 | 180 | 19.3 | 0.0 | 0.00 | 0.00 | 0.00 | 1013.3 | |
| 20260507174232 | 12 | 135 | 14.5 | 0.0 | 0.00 | 0.00 | 0.00 | 1013.5 | |
| 20260507173218 | 12 | 90 | 11.3 | 0.0 | 0.00 | 0.00 | 0.00 | 1013.5 | |
| 20260507172205 | 12 | 90 | 9.7 | 0.0 | 0.00 | 0.00 | 0.00 | 1013.4 | |
| 20260507171151 | 12 | 90 | 6.4 | 0.0 | 0.00 | 0.00 | 0.00 | 1013.4 | |
| 20260507170137 | 12 | 180 | 12.9 | 0.0 | 0.00 | 0.00 | 0.00 | 1013.6 | |
| 20260507165124 | 12 | 180 | 8.0 | 0.0 | 0.00 | 0.00 | 0.00 | 1013.4 | |
| 20260507164110 | 12 | 135 | 6.4 | 0.0 | 0.00 | 0.00 | 0.00 | 1013.4 | |
| 20260507163056 | 12 | 135 | 17.7 | 0.0 | 0.00 | 0.00 | 0.00 | 1013.2 | |
| 20260507162043 | 12 | 135 | 20.9 | 0.0 | 0.00 | 0.00 | 0.00 | 1013.3 | |
| 20260507161029 | 13 | 90 | 17.7 | 0.0 | 0.00 | 0.00 | 0.00 | 1013.3 | |
| 20260507160016 | 13 | 135 | 14.5 | 0.0 | 0.00 | 0.00 | 0.00 | 1013.3 | |
| 20260507155002 | 15 | 135 | 11.3 | 0.0 | 0.00 | 0.00 | 0.00 | 1013.4 | |
| 20260507153948 | 18 | 135 | 14.5 | 0.0 | 0.00 | 0.00 | 0.00 | 1013.4 | |
| 20260507152935 | 15 | 180 | 11.3 | 0.0 | 0.00 | 0.00 | 0.00 | 1013.3 | |
| 20260507151921 | 17 | 180 | 19.3 | 0.0 | 0.00 | 0.00 | 0.00 | 1013.3 | |
| 20260507150908 | 17 | 180 | 17.7 | 0.0 | 0.00 | 0.00 | 0.00 | 1013.3 | |
| 20260507145854 | 18 | 90 | 19.3 | 0.0 | 0.00 | 0.00 | 0.00 | 1013.2 | |
| 20260507144840 | 18 | 45 | 20.9 | 0.0 | 0.00 | 0.00 | 0.00 | 1013.1 | |
| 20260507143827 | 17 | 45 | 16.1 | 0.0 | 0.00 | 0.00 | 0.00 | 1013.3 | |
| 20260507142813 | 16 | 45 | 19.3 | 0.0 | 0.00 | 0.00 | 0.00 | 1013.3 | |
| 20260507141759 | 16 | 45 | 16.1 | 0.0 | 0.00 | 0.00 | 0.00 | 1013.5 | |
| 20260507140746 | 16 | 45 | 14.5 | 0.0 | 0.00 | 0.00 | 0.00 | 1013.5 | |
| 20260507135732 | 19 | 45 | 20.9 | 0.0 | 0.00 | 0.00 | 0.00 | 1013.5 | |
| 20260507134719 | 20 | 45 | 19.3 | 0.0 | 0.00 | 0.00 | 0.00 | 1013.7 | |
| 20260507133705 | 20 | 45 | 12.9 | 0.0 | 0.00 | 0.00 | 0.00 | 1013.7 | |
| 20260507132651 | 20 | 45 | 25.7 | 0.0 | 0.00 | 0.00 | 0.00 | 1013.9 | |
| 20260507131638 | 21 | 90 | 24.1 | 0.0 | 0.00 | 0.00 | 0.00 | 1013.8 | |
| 20260507130624 | 20 | 45 | 19.3 | 0.0 | 0.00 | 0.00 | 0.00 | 1013.9 | |
| 20260507125610 | 20 | 45 | 27.4 | 0.0 | 0.00 | 0.00 | 0.00 | 1014.1 | |
| 20260507124557 | 20 | 45 | 24.1 | 0.0 | 0.00 | 0.00 | 0.00 | 1014.1 | |
| 20260507123543 | 18 | 45 | 17.7 | 0.0 | 0.00 | 0.00 | 0.00 | 1014.3 | |
| 20260507122530 | 18 | 45 | 17.7 | 0.0 | 0.00 | 0.00 | 0.00 | 1014.4 | |
| 20260507121516 | 20 | 45 | 14.5 | 0.0 | 0.00 | 0.00 | 0.00 | 1014.3 | |
| 20260507120502 | 21 | 45 | 17.7 | 0.0 | 0.00 | 0.00 | 0.00 | 1014.4 | |
| 20260507115449 | 21 | 315 | 25.7 | 0.0 | 0.00 | 0.00 | 0.00 | 1014.4 | |
| 20260507114435 | 20 | 45 | 19.3 | 0.0 | 0.00 | 0.00 | 0.00 | 1014.5 | |
| 20260507113421 | 20 | 45 | 22.5 | 0.0 | 0.00 | 0.00 | 0.00 | 1014.6 | |
| 20260507112408 | 21 | 45 | 25.7 | 0.0 | 0.00 | 0.00 | 0.00 | 1014.6 | |
| 20260507111354 | 20 | 45 | 19.3 | 0.0 | 0.00 | 0.00 | 0.00 | 1014.7 | |
| 20260507110341 | 21 | 45 | 19.3 | 0.0 | 0.00 | 0.00 | 0.00 | 1014.8 | |
| 20260507105327 | 20 | 45 | 20.9 | 0.0 | 0.00 | 0.00 | 0.00 | 1014.9 | |
| 20260507104313 | 20 | 45 | 27.4 | 0.0 | 0.00 | 0.00 | 0.00 | 1014.9 | |
| 20260507103300 | 19 | 45 | 16.1 | 0.0 | 0.00 | 0.00 | 0.00 | 1014.9 | |
| 20260507102246 | 18 | 45 | 12.9 | 0.0 | 0.00 | 0.00 | 0.00 | 1014.8 | |
| 20260507101232 | 18 | 45 | 12.9 | 0.0 | 0.00 | 0.00 | 0.00 | 1015.1 | |
| 20260507100219 | 17 | 45 | 17.7 | 0.0 | 0.00 | 0.00 | 0.00 | 1015.0 | |
| 20260507095205 | 17 | 45 | 22.5 | 0.0 | 0.00 | 0.00 | 0.00 | 1015.1 | |
| 20260507094152 | 17 | 45 | 19.3 | 0.0 | 0.00 | 0.00 | 0.00 | 1015.1 | |
| 20260507093138 | 17 | 45 | 22.5 | 0.0 | 0.00 | 0.00 | 0.00 | 1015.2 | |
| 20260507092124 | 16 | 45 | 22.5 | 0.0 | 0.00 | 0.00 | 0.00 | 1015.1 | |
| 20260507091111 | 16 | 45 | 19.3 | 0.0 | 0.00 | 0.00 | 0.00 | 1015.1 | |
| 20260507090057 | 16 | 45 | 20.9 | 0.0 | 0.00 | 0.00 | 0.00 | 1015.1 | |
| 20260507085043 | 16 | 45 | 20.9 | 0.0 | 0.00 | 0.00 | 0.00 | 1015.0 | |
| 20260507084030 | 16 | 0 | 12.9 | 0.0 | 0.00 | 0.00 | 0.00 | 1015.0 | |
| 20260507083016 | 15 | 90 | 14.5 | 0.0 | 0.00 | 0.00 | 0.00 | 1015.2 | |
| 20260507082003 | 15 | 90 | 16.1 | 0.0 | 0.00 | 0.00 | 0.00 | 1015.1 | |
| 20260507080949 | 14 | 90 | 16.1 | 0.0 | 0.00 | 0.00 | 0.00 | 1015.1 | |
| 20260507075935 | 13 | 45 | 12.9 | 0.0 | 0.00 | 0.00 | 0.00 | 1015.1 | |
| 20260507074922 | 12 | 90 | 20.9 | 0.0 | 0.00 | 0.00 | 0.00 | 1015.0 | |
| 20260507073908 | 13 | 90 | 16.1 | 0.0 | 0.00 | 0.00 | 0.00 | 1015.0 | |
| 20260507072854 | 13 | 90 | 6.4 | 0.0 | 0.00 | 0.00 | 0.00 | 1014.9 | |
| 20260507071841 | 13 | 90 | 16.1 | 0.0 | 0.00 | 0.00 | 0.00 | 1014.9 | |
| 20260507070827 | 13 | 90 | 9.7 | 0.0 | 0.00 | 0.00 | 0.00 | 1015.0 | |
| 20260507065814 | 13 | 90 | 14.5 | 0.0 | 0.00 | 0.00 | 0.00 | 1015.0 | |
| 20260507064800 | 13 | 90 | 11.3 | 0.0 | 0.00 | 0.00 | 0.00 | 1015.0 | |
| 20260507063746 | 13 | 45 | 12.9 | 0.0 | 0.00 | 0.00 | 0.00 | 1014.9 | |
| 20260507062733 | 12 | 90 | 14.5 | 0.0 | 0.00 | 0.00 | 0.00 | 1015.0 | |
| 20260507061719 | 12 | 90 | 12.9 | 0.0 | 0.00 | 0.00 | 0.00 | 1014.9 | |
| 20260507060705 | 12 | 90 | 9.7 | 0.0 | 0.00 | 0.00 | 0.00 | 1015.0 | |
| 20260507055652 | 11 | 135 | 4.8 | 0.0 | 0.00 | 0.00 | 0.00 | 1015.0 | |
| 20260507054638 | 11 | 90 | 9.7 | 0.0 | 0.00 | 0.00 | 0.00 | 1014.9 | |
| 20260507053625 | 10 | 90 | 6.4 | 0.0 | 0.00 | 0.00 | 0.00 | 1014.9 | |
| 20260507052611 | 10 | 90 | 9.7 | 0.0 | 0.00 | 0.00 | 0.00 | 1014.9 | |
| 20260507051557 | 9 | 135 | 12.9 | 0.0 | 0.00 | 0.00 | 0.00 | 1014.8 | |
| 20260507050544 | 8 | 90 | 14.5 | 0.0 | 0.00 | 0.00 | 0.00 | 1014.8 | |
| 20260507045530 | 7 | 135 | 11.3 | 0.0 | 0.00 | 0.00 | 0.00 | 1014.8 | |
| 20260507044452 | 7 | 135 | 11.3 | 0.0 | 0.00 | 0.00 | 0.00 | 1014.8 | |
| 20260507043438 | 7 | 135 | 9.7 | 0.0 | 0.00 | 0.00 | 0.00 | 1014.8 | |
| 20260507042424 | 7 | 90 | 12.9 | 0.0 | 0.00 | 0.00 | 0.00 | 1014.8 | |
| 20260507041411 | 7 | 135 | 8.0 | 0.0 | 0.00 | 0.00 | 0.00 | 1014.8 | |
| 20260507040357 | 7 | 90 | 12.9 | 0.0 | 0.00 | 0.00 | 0.00 | 1014.7 | |
| 20260507033702 | 8 | 90 | 14.5 | 0.0 | 0.00 | 0.00 | 0.00 | 1014.8 | |
| 20260507032648 | 8 | 90 | 17.7 | 0.0 | 0.00 | 0.00 | 0.00 | 1014.8 | |
| 20260507031634 | 8 | 90 | 17.7 | 0.0 | 0.00 | 0.00 | 0.00 | 1014.9 | |
| 20260507030621 | 8 | 90 | 17.7 | 0.0 | 0.00 | 0.00 | 0.00 | 1014.9 | |
| 20260507025607 | 8 | 90 | 14.5 | 0.0 | 0.00 | 0.00 | 0.00 | 1014.9 | |
| 20260507024554 | 8 | 90 | 17.7 | 0.0 | 0.00 | 0.00 | 0.00 | 1014.9 | |
| 20260507023540 | 7 | 90 | 12.9 | 0.0 | 0.00 | 0.00 | 0.00 | 1014.9 | |
| 20260507022526 | 7 | 135 | 11.3 | 0.0 | 0.00 | 0.00 | 0.00 | 1015.1 | |
| 20260507021513 | 7 | 135 | 12.9 | 0.0 | 0.00 | 0.00 | 0.00 | 1015.0 | |
| 20260507020459 | 7 | 90 | 14.5 | 0.0 | 0.00 | 0.00 | 0.00 | 1015.0 | |
| 20260507015445 | 7 | 135 | 12.9 | 0.0 | 0.00 | 0.00 | 0.00 | 1015.1 | |
| 20260507014432 | 7 | 135 | 11.3 | 0.0 | 0.00 | 0.00 | 0.00 | 1015.1 | |
| 20260507013418 | 7 | 135 | 12.9 | 0.0 | 0.00 | 0.00 | 0.00 | 1015.2 | |
| 20260507012404 | 7 | 90 | 12.9 | 0.0 | 0.00 | 0.00 | 0.00 | 1015.2 | |
| 20260507011351 | 7 | 135 | 12.9 | 0.0 | 0.00 | 0.00 | 0.00 | 1015.3 | |
| 20260507010338 | 7 | 135 | 12.9 | 0.0 | 0.00 | 0.00 | 0.00 | 1015.3 | |
| 20260507005324 | 7 | 135 | 9.7 | 0.0 | 0.00 | 0.00 | 0.00 | 1015.5 | |
| 20260507004310 | 7 | 135 | 11.3 | 0.0 | 0.00 | 0.00 | 0.00 | 1015.6 | |
| 20260507003257 | 7 | 90 | 11.3 | 0.0 | 0.00 | 0.00 | 0.00 | 1015.6 | |
| 20260507002243 | 7 | 90 | 14.5 | 0.0 | 0.00 | 0.00 | 0.00 | 1015.7 | |
| 20260507001229 | 7 | 90 | 11.3 | 0.0 | 0.00 | 0.00 | 0.00 | 1015.8 | |
| 20260507000216 | 7 | 90 | 14.5 | 0.0 | 0.00 | 0.00 | 0.00 | 1015.8 | |
| 20260506235202 | 7 | 90 | 14.5 | 0.0 | 0.00 | 0.00 | 0.00 | 1015.8 | |
| 20260506234148 | 7 | 45 | 9.7 | 0.0 | 0.00 | 0.00 | 0.00 | 1016.0 | |
| 20260506233135 | 7 | 90 | 11.3 | 0.0 | 0.00 | 0.00 | 0.00 | 1016.1 | |
| 20260506232121 | 7 | 90 | 9.7 | 0.0 | 0.00 | 0.00 | 0.00 | 1016.1 | |
| 20260506231107 | 7 | 90 | 12.9 | 0.0 | 0.00 | 0.00 | 0.00 | 1016.2 | |
| 20260506230054 | 8 | 90 | 12.9 | 0.0 | 0.00 | 0.00 | 0.00 | 1016.1 | |
| 20260506225040 | 8 | 45 | 17.7 | 0.0 | 0.00 | 0.00 | 0.00 | 1016.1 | |
| 20260506224026 | 8 | 45 | 19.3 | 0.0 | 0.00 | 0.00 | 0.00 | 1016.1 | |
| 20260506222901 | 8 | 45 | 17.7 | 0.0 | 0.00 | 0.00 | 0.00 | 1016.2 | |
| 20260506221847 | 8 | 45 | 17.7 | 0.0 | 0.00 | 0.00 | 0.00 | 1016.2 | |
| 20260506220833 | 7 | 90 | 9.7 | 0.0 | 0.00 | 0.00 | 0.00 | 1016.3 | |
| 20260506215820 | 8 | 135 | 6.4 | 0.0 | 0.00 | 0.00 | 0.00 | 1016.4 | |
| 20260506214806 | 7 | 90 | 9.7 | 0.0 | 0.00 | 0.00 | 0.00 | 1016.4 |